Location: Dortmund
(51.5019°N, 7.6520°E)
Time: 23:33:08
(UTC+02:00)

ELECTRON R/B - Visible Passes

Search period start: 22 May 2018 00:00
Search period end: 01 June 2018 00:00
Orbit: 285 x 480 km, 82.9° (Epoch: 21 May)

Date Brightness Start Highest point End Pass type
(mag) Time Alt. Az. Time Alt. Az. Time Alt. Az.
22 May 4.3 22:05:46 10° NNW 22:08:14 82° WSW 22:10:39 10° S visible
23 May 7.2 22:42:48 10° NW 22:44:26 16° W 22:46:03 10° SW visible
25 May 7.1 22:22:20 10° NW 22:24:09 18° W 22:25:58 10° SW visible
